ASTRA 1KR

Last updated on Sat Apr 13 2024 01:02:37 GMT+0100 (British Summer Time)

1 29055U 06012A 24103.52455250 .00000111 00000+0 00000+0 0 9999 2 29055 0.0431 66.3973 0001700 250.3971 92.4031 1.00273037 37732
UTC large
Height (km)
Speed (km/s)
/
Latitude / Longitude
Inclination (degrees)
Orbital Period (minutes)
Azimuth
Elevation
Range (km)
Doppler Factor

Next 0 passes for location: London (51.5072 / 0.1276)

Sorry there are no passes over London.